NUSAT 1 (LO-87) (41557 NORAD) Tracking and Keplerian Element Data

This shows tracking and keplerian element data for the satellite.

Feedback or suggestion? Click here.




ElementValue
Catalog41557
NameNUSAT 1 (LO-87)
Epoch Orbit13715
Epoch Day318.85218989
Epoch Year2018
RAAN42.5655
Inclination97.4309
Eccentricity0.0012439
Argument of Perigee345.5082
Mean Anonmoly14.5799
Mean Motion15.2709191
Decay Rate1.137E-05
L11 41557U 16033B 18318.85218989 .00001137 00000-0 45529-4 0 9997
L22 41557 97.4309 42.5655 0012439 345.5082 14.5799 15.27091910137156

Live tracking and technical data element details for NUSAT 1 (LO-87) (NORAD 41557). NUSAT 1 (LO-87) can be tracked NOW for your location showing map with azimuth and elevation plus other details from your city location.

Track the satellite on the map from your city or location and see movement details for azimuth, elevation, latitude, longitude, range, height, and movement on the map or in text.







IsCatalogInMostPopularTable: catalog: 41557, numindb: 139
Update: records affected: 1



GetName: 41557 NUSAT 1 (LO-87)

Hit Count: updated at: Fri, 16 Nov 2018 04:18:22 GMT